CYYFCYLW

Guest
Details From CYYF - PENTICTON
To CYLW - Kelowna
Flight Number -
Tags generated
Created
Modified
Stats Distance 31 nm / 57 km
Max Altitude 500 ft / 152 m
Waypoints 3
Social Downloads 1
Likes 0
Share VATSIM

Download

Looking for another format? Having issues loading an existing format? Contact us
Advertisement - Login to hide

Notes

Basic altitude profile: - Ascent Rate: 2500ft/min - Ascent Speed: 80kts - Cruise Altitude: 10000ft - Cruise Speed: 80kts - Descent Rate: 1500ft/min - Descent Speed: 80kts Options: - Use NATs: yes - Use PACOTS: yes - Use low airways: yes - Use high airways: no

Route

CYYF YYF CYLW

ID Type Via Altitude Latitude Longitude Leg Dist Tot Dist Heading (true) Name
O CYYF APT - 0 ft / 0 m 49.46125˚ -119.60138˚ - 0 nm - PENTICTON
YYF NDB - 500 ft / 152 m 49.48772˚ -119.60153˚ 1 nm 1 nm 360° / 360° PENTICTON NDB
O CYLW APT - 0 ft / 0 m 49.95612˚ -119.37776˚ 29 nm 31 nm 17° / 17° Kelowna

Altitude Profile

Advertisement - Login to hide

CYYF

Details ICAO CYYF (YYF)
Name PENTICTON
Region Canada
Timezone America/Vancouver (UTC-7.0)
Stats Elevation 1,129 ft / 344 m (AMSL)
Location 49.461250° -119.601385°
Runways 1
Magnetic Variation 15.506° E

METAR

CYYF 272300Z 36007KT 15SM FEW080 FEW250 28/09 A2998 RMK CU1CI1 SLP153 DENSITY ALT 2800FT

Decode

TAF

TAF CYYF 271838Z 2719/2807 VRB03KT P6SM FEW080 FEW250 BECMG 2720/2722 36008KT RMK NXT FCST BY 280100Z

Decode

Departure Runways

ID Width Length Bearing (true) Bearing (mag) Surface Threshold Offset Overrun Length
16 148 ft / 45 m 5,986 ft / 1,825 m 182.52° 167.01° Asphalt 0 ft / 0 m 0 ft / 0 m
34 148 ft / 45 m 5,986 ft / 1,825 m 2.52° 347.01° Asphalt 300 ft / 91 m 0 ft / 0 m

CYLW

Details ICAO CYLW (YLW)
Name Kelowna
Region Canada
Timezone America/Vancouver (UTC-7.0)
Stats Elevation 1,409 ft / 429 m (AMSL)
Location 49.956117° -119.377757°
Runways 1
Magnetic Variation 15.564° E

METAR

CYLW 272300Z AUTO 20005KT 090V220 9SM CLR 27/07 A3000 RMK SLP156 DENSITY ALT 3000FT

Decode

TAF

TAF CYLW 271838Z 2719/2807 VRB03KT P6SM FEW250 BECMG 2719/2721 20008KT RMK FCST BASED ON AUTO OBS. NXT FCST BY 280100Z

Decode

Destination Runways

ID Width Length Bearing (true) Bearing (mag) Surface Threshold Offset Overrun Length
16 200 ft / 61 m 7,299 ft / 2,225 m 174.89° 159.33° Asphalt 0 ft / 0 m 0 ft / 0 m
34 200 ft / 61 m 7,299 ft / 2,225 m 354.89° 339.33° Asphalt 0 ft / 0 m 0 ft / 0 m

Approach Navaids

Runway Type Ident Frequency Range Bearing (true) Bearing (mag) Slope Elevation
16 Localiser ILW 111.30 MHz 18 nm / 33 km 174.87° 159.31° - 1,049 ft / 320 m (AMSL)
16 Glidescope ILW 111.30 MHz 10 nm / 19 km 174.89° 159.32° 3.20° 1,409 ft / 429 m (AMSL)
16 DME ILW 111.30 MHz 18 nm / 33 km - - - 1,409 ft / 429 m (AMSL)